Americus, GA

6:15 PM EDT on June 27, 2017 (GMT -0400)
Souther

Weather History for KACJ - January, 2014

Change the Weather History Date:

Friday, January 24, 2014

  Actual Average (KABY) Record (KABY)
Temperature  
Mean Temperature 28 °F -  
Max Temperature 35 °F 59 °F 80 °F (1943)
Min Temperature 21 °F 36 °F 9 °F (1963)
Degree Days  
Heating Degree Days 37    
Moisture  
Dew Point 4 °F    
Average Humidity 37    
Maximum Humidity 80    
Minimum Humidity 22    
Precipitation  
Precipitation 0.00 in - - ()
Sea Level Pressure  
Sea Level Pressure 30.51 in    
Wind  
Wind Speed 9 mph (NNE)    
Max Wind Speed 15 mph    
Max Gust Speed 21 mph    
Visibility 10 miles    
Events      
Averages and records for this station are not official NWS values.
T = Trace of Precipitation, MM = Missing Value Source: NWS Daily Summary

Daily Weather History Graph

Daily Weather History Graph

Search for Another Location

Airport or City:

Trip Planner

Search our weather history database for the weather conditions in past years. The results will help you decide how hot, cold, wet, or windy it might be!

Date:

Astronomy

Jan. 24, 2014 Rise Set
Actual Time 7:34 AM EST 6:03 PM EST
Civil Twilight 7:08 AM EST 6:29 PM EST
Nautical Twilight 6:39 AM EST 6:58 PM EST
Astronomical Twilight 6:10 AM EST 7:28 PM EST
Moon 1:06 AM EST (1/24) 12:17 PM EST (1/24)
Length of Visible Light 11h 20m
Length of Day
10h 28m
Last Quarter, 45% of the Moon is Illuminated
Jan 24
Last Quarter
Jan 30
New
Feb 6
First Quarter
Feb 14
Full
Feb 22
Last Quarter

Hourly Weather History & Observations

Time (EST) Temp. Windchill Dew Point Humidity Pressure Visibility Wind Dir Wind Speed Gust Speed Precip Events Conditions
12:15 AM 32.0 °F 24.2 °F 12.2 °F 44% 30.50 in 10.0 mi NNW 9.2 mph - N/A   Overcast
12:35 AM 32.0 °F 21.6 °F 8.6 °F 38% 30.50 in 10.0 mi NNW 15.0 mph 18.4 mph N/A   Overcast
12:55 AM 32.0 °F 22.1 °F 8.6 °F 38% 30.51 in 10.0 mi North 13.8 mph 20.7 mph N/A   Overcast
1:15 AM 32.0 °F 22.5 °F 8.6 °F 38% 30.51 in 10.0 mi North 12.7 mph 20.7 mph N/A   Overcast
1:35 AM 32.0 °F 22.5 °F 8.6 °F 38% 30.51 in 10.0 mi North 12.7 mph 20.7 mph N/A   Overcast
1:55 AM 32.0 °F 22.5 °F 6.8 °F 35% 30.53 in 10.0 mi North 12.7 mph 16.1 mph N/A   Overcast
2:15 AM 32.0 °F 23.6 °F 5.0 °F 32% 30.54 in 10.0 mi NNW 10.4 mph 19.6 mph N/A   Overcast
2:35 AM 30.2 °F 19.8 °F 3.2 °F 32% 30.56 in 10.0 mi North 13.8 mph 20.7 mph N/A   Overcast
2:55 AM 30.2 °F 19.8 °F 1.4 °F 29% 30.57 in 10.0 mi North 13.8 mph 18.4 mph N/A   Overcast
3:15 AM 30.2 °F 20.8 °F 1.4 °F 29% 30.57 in 10.0 mi North 11.5 mph - N/A   Overcast
3:35 AM 28.4 °F 18.5 °F 1.4 °F 31% 30.57 in 10.0 mi North 11.5 mph 19.6 mph N/A   Overcast
3:55 AM 28.4 °F 17.0 °F -0.4 °F 29% 30.57 in 10.0 mi North 15.0 mph 19.6 mph N/A   Overcast
4:15 AM 28.4 °F 19.7 °F 1.4 °F 31% 30.58 in 10.0 mi North 9.2 mph 18.4 mph N/A   Overcast
4:35 AM 28.4 °F 18.0 °F -0.4 °F 29% 30.57 in 10.0 mi North 12.7 mph 16.1 mph N/A   Mostly Cloudy
4:55 AM 28.4 °F 19.1 °F 1.4 °F 31% 30.58 in 10.0 mi North 10.4 mph - N/A   Scattered Clouds
5:15 AM 26.6 °F 14.7 °F -0.4 °F 31% 30.58 in 10.0 mi North 15.0 mph - N/A   Scattered Clouds
5:35 AM 26.6 °F 15.2 °F -0.4 °F 31% 30.59 in 10.0 mi North 13.8 mph - N/A   Clear
5:55 AM 26.6 °F 16.2 °F 1.4 °F 34% 30.59 in 10.0 mi North 11.5 mph - N/A   Clear
6:15 AM 26.6 °F 16.8 °F 1.4 °F 34% 30.59 in 10.0 mi North 10.4 mph - N/A   Clear
6:35 AM 24.8 °F 16.1 °F 1.4 °F 36% 30.60 in 10.0 mi North 8.1 mph - N/A   Clear
6:55 AM 23.0 °F 11.7 °F -0.4 °F 36% 30.61 in 10.0 mi NNE 11.5 mph 17.3 mph N/A   Clear
7:15 AM 23.0 °F 14.7 °F -0.4 °F 36% 30.61 in 10.0 mi NNE 6.9 mph - N/A   Clear
7:35 AM 21.2 °F 10.9 °F -0.4 °F 39% 30.61 in 10.0 mi NNE 9.2 mph - N/A   Clear
7:55 AM 21.2 °F 10.1 °F -0.4 °F 39% 30.62 in 10.0 mi NNE 10.4 mph - N/A   Clear
8:15 AM 21.2 °F 10.9 °F -0.4 °F 39% 30.62 in 10.0 mi North 9.2 mph 17.3 mph N/A   Clear
8:35 AM 21.2 °F 10.9 °F 1.4 °F 42% 30.61 in 10.0 mi NNE 9.2 mph - N/A   Clear
8:55 AM 21.2 °F 9.5 °F 1.4 °F 42% 30.62 in 10.0 mi NNE 11.5 mph - N/A   Clear
9:15 AM 23.0 °F 12.4 °F -0.4 °F 36% 30.61 in 10.0 mi NNE 10.4 mph - N/A   Clear
9:35 AM 23.0 °F 13.9 °F 1.4 °F 39% 30.62 in 10.0 mi NE 8.1 mph - N/A   Clear
9:55 AM 24.8 °F 16.9 °F 1.4 °F 36% 30.62 in 10.0 mi NNE 6.9 mph - N/A   Clear
10:15 AM 26.6 °F 16.8 °F -0.4 °F 31% 30.62 in 10.0 mi NNE 10.4 mph - N/A   Clear
10:35 AM 26.6 °F 18.2 °F 1.4 °F 34% 30.62 in 10.0 mi North 8.1 mph - N/A   Clear
10:55 AM 28.4 °F 19.1 °F 1.4 °F 31% 30.61 in 10.0 mi ENE 10.4 mph - N/A   Clear
11:15 AM 28.4 °F 19.1 °F -0.4 °F 29% 30.60 in 10.0 mi ENE 10.4 mph - N/A   Clear
11:35 AM 30.2 °F 21.3 °F -0.4 °F 27% 30.60 in 10.0 mi NE 10.4 mph - N/A   Clear
11:55 AM 30.2 °F 21.3 °F -0.4 °F 27% 30.58 in 10.0 mi ENE 10.4 mph 16.1 mph N/A   Clear
12:15 PM 32.0 °F 23.0 °F -0.4 °F 25% 30.55 in 10.0 mi NE 11.5 mph 16.1 mph N/A   Clear
12:35 PM 32.0 °F 26.4 °F -0.4 °F 25% 30.55 in 10.0 mi NE 5.8 mph - N/A   Clear
12:55 PM 32.0 °F - -0.4 °F 25% 30.53 in 10.0 mi Calm Calm - N/A   Clear
1:15 PM 32.0 °F 24.8 °F -0.4 °F 25% 30.52 in 10.0 mi NE 8.1 mph - N/A   Clear
1:35 PM 33.8 °F 28.6 °F -0.4 °F 23% 30.50 in 10.0 mi NNE 5.8 mph - N/A   Clear
1:55 PM 33.8 °F 29.6 °F -2.2 °F 22% 30.49 in 10.0 mi ENE 4.6 mph - N/A   Clear
2:15 PM 33.8 °F 27.7 °F -2.2 °F 22% 30.47 in 10.0 mi NE 6.9 mph - N/A   Clear
2:35 PM 35.6 °F 30.7 °F -0.4 °F 22% 30.47 in 10.0 mi ESE 5.8 mph - N/A   Clear
2:55 PM 33.8 °F - -0.4 °F 23% 30.46 in 10.0 mi Calm Calm - N/A   Clear
3:15 PM 35.6 °F 30.7 °F -0.4 °F 22% 30.45 in 10.0 mi East 5.8 mph - N/A   Clear
3:35 PM 35.6 °F - -0.4 °F 22% 30.44 in 10.0 mi Calm Calm - N/A   Clear
3:55 PM 35.6 °F 31.7 °F -0.4 °F 22% 30.44 in 10.0 mi ENE 4.6 mph - N/A   Clear
4:15 PM 35.6 °F 32.8 °F -0.4 °F 22% 30.44 in 10.0 mi East 3.5 mph - N/A   Clear
4:35 PM 33.8 °F - -0.4 °F 23% 30.44 in 10.0 mi Calm Calm - N/A   Clear
4:55 PM 33.8 °F - -0.4 °F 23% 30.44 in 10.0 mi Calm Calm - N/A   Clear
5:15 PM 33.8 °F - 3.2 °F 28% 30.43 in 10.0 mi Calm Calm - N/A   Clear
5:35 PM 33.8 °F - 5.0 °F 30% 30.43 in 10.0 mi Calm Calm - N/A   Scattered Clouds
5:55 PM 32.0 °F - 10.4 °F 41% 30.43 in 10.0 mi Calm Calm - N/A   Mostly Cloudy
6:15 PM 32.0 °F 28.7 °F 5.0 °F 32% 30.42 in 10.0 mi East 3.5 mph - N/A   Overcast
6:35 PM 32.0 °F - 12.2 °F 44% 30.42 in 10.0 mi Calm Calm - N/A   Mostly Cloudy
6:55 PM 30.2 °F - 8.6 °F 40% 30.42 in 10.0 mi Calm Calm - N/A   Scattered Clouds
7:15 PM 30.2 °F - 10.4 °F 44% 30.41 in 10.0 mi Calm Calm - N/A   Clear
7:35 PM 28.4 °F - 12.2 °F 51% 30.41 in 10.0 mi Calm Calm - N/A   Clear
7:55 PM 28.4 °F - 8.6 °F 43% 30.40 in 10.0 mi Calm Calm - N/A   Clear
8:15 PM 28.4 °F - 6.8 °F 40% 30.40 in 10.0 mi Calm Calm - N/A   Clear
8:35 PM 28.4 °F - 8.6 °F 43% 30.40 in 10.0 mi Calm Calm - N/A   Clear
8:55 PM 26.6 °F - 14.0 °F 59% 30.40 in 10.0 mi Calm Calm - N/A   Scattered Clouds
9:15 PM 28.4 °F - 15.8 °F 59% 30.39 in 10.0 mi Calm Calm - N/A   Overcast
9:35 PM 28.4 °F - 17.6 °F 64% 30.39 in 10.0 mi Calm Calm - N/A   Overcast
9:55 PM 30.2 °F - 14.0 °F 51% 30.39 in 10.0 mi Calm Calm - N/A   Overcast
10:15 PM 28.4 °F - 17.6 °F 64% 30.38 in 10.0 mi Calm Calm - N/A   Mostly Cloudy
10:35 PM 28.4 °F - 17.6 °F 64% 30.37 in 10.0 mi Calm Calm - N/A   Mostly Cloudy
10:55 PM 26.6 °F - 17.6 °F 69% 30.36 in 10.0 mi Calm Calm - N/A   Scattered Clouds
11:15 PM 26.6 °F - 14.0 °F 59% 30.35 in 10.0 mi Calm Calm - N/A   Clear
11:35 PM 26.6 °F - 17.6 °F 69% 30.34 in 10.0 mi Calm Calm - N/A   Clear
11:55 PM 24.8 °F - 19.4 °F 80% 30.33 in 10.0 mi Calm Calm - N/A   Clear